Home > Weather > Quesnel > Past weeks

Flag for Canada Weather for the Past 2 Weeks in Quesnel, British Columbia, Canada

Now
34 °F

Clear.


Feels Like: 34 °F
Forecast: 30 / 65 °F
Wind: No wind

Location: Quesnel Airport

Current Time: Apr 30, 2016 at 2:14:16 AM

Latest Report: Apr 30, 2016 at 1:00 AM


Visibility: 9 mi

Pressure: 30.28 "Hg

Humidity: 87%

Dew Point: 30 °F

Location of QuesnelLocation

Historic Weather in Quesnel — Graph

°F

Quesnel Temperature Yesterday

Maximum temperature yesterday: 57 °F (at 3:00 PM)
Minimum temperature yesterday: 37 °F (at 11:00 PM)
Average temperature yesterday: 47 °F

High & Low Weather Summary for the Past Weeks

 TemperatureHumidityPressure
High81 °F (Apr 18, 5:00 PM)100% (Apr 22, 2:00 AM)30.31 "Hg (Apr 22, 2:00 AM)
Low27 °F (Apr 15, 6:00 AM)14% (Apr 18, 7:00 PM)29.63 "Hg (Apr 21, 2:00 PM)
Average51 °F66%30.00 "Hg
* Reported Apr 15 1:00 AM — Apr 30 1:00 AM, Quesnel, Weather by CustomWeather, © 2016

Note: Actual official high and low records may vary slightly from our data, if they occured in-between our weather recording intervals... More about our weather records

Advertising

Quesnel Weather History for the Previous 24 Hours

Scroll right to see more
 ConditionsComfort  
Time TempWeatherWind HumidityBarometerVisibility
1:00 AM
Sat, Apr 30
34 °FClear.No wind87%30.28 "Hg9 mi
12:00 AM36 °FClear.2 mph87%30.26 "Hg9 mi
11:00 PM
Fri, Apr 29
37 °FClear.No wind81%30.23 "Hg9 mi
10:00 PM41 °FClear.2 mph70%30.20 "Hg9 mi
9:00 PM43 °FSunny.2 mph66%30.18 "Hg9 mi
8:00 PM52 °FSunny.6 mph44%30.15 "Hg9 mi
7:00 PM55 °FSunny.7 mph41%30.13 "Hg9 mi
6:00 PM57 °FSunny.9 mph31%30.12 "Hg9 mi
5:00 PM57 °FSunny.8 mph29%30.11 "Hg9 mi
4:00 PM57 °FSunny.12 mph33%30.10 "Hg9 mi
3:00 PM57 °FScattered clouds.10 mph39%30.10 "Hg9 mi
2:00 PM55 °FBroken clouds.5 mph36%30.09 "Hg9 mi
1:00 PM54 °FBroken clouds.8 mph44%30.09 "Hg9 mi
12:00 PM52 °FMostly cloudy.6 mph50%30.09 "Hg9 mi
11:00 AM52 °FPartly sunny.7 mph50%30.09 "Hg9 mi
10:00 AM50 °FSunny.7 mph67%30.10 "Hg9 mi
9:00 AM45 °FScattered clouds.No wind87%30.10 "Hg9 mi
8:00 AM41 °FFog.2 mph100%30.09 "Hg2 mi
7:00 AM41 °FFog.3 mph100%30.07 "Hg0 mi
6:03 AM39 °FFog.No wind100%30.06 "Hg6 mi
5:00 AM39 °FFog.2 mph100%30.05 "Hg0 mi
4:02 AM39 °FFog.No wind93%30.05 "Hg4 mi
3:59 AM39 °FPassing clouds.No wind100%30.05 "Hg8 mi
3:00 AM41 °FPassing clouds.2 mph100%30.03 "Hg9 mi
2:02 AM46 °FOvercast.2 mph93%30.02 "Hg9 mi
Weather by CustomWeather, © 2016

See weather overviewHow to use our weather pages